Weather History for Galena, AK

Change the Weather History Date:

Tuesday, February 26, 2013

  Actual Average Record
Temperature  
Mean Temperature -2 °F -  
Max Temperature 3 °F 7 °F 34 °F (1970)
Min Temperature -7 °F -11 °F -43 °F (1954)
Degree Days  
Heating Degree Days 67    
Moisture  
Dew Point -7 °F    
Average Humidity 77    
Maximum Humidity 83    
Minimum Humidity 66    
Precipitation  
Precipitation 0.00 in - - ()
Sea Level Pressure  
Sea Level Pressure 29.80 in    
Wind  
Wind Speed 5 mph (NNW)    
Max Wind Speed 8 mph    
Max Gust Speed 16 mph    
Visibility 10 miles    
Events Snow    
Averages and records for this station are not official NWS values.
T = Trace of Precipitation, MM = Missing Value Source: NWS Daily Summary

Daily Weather History Graph

Daily Weather History Graph

Search for Another Location

Airport:

Trip Planner

Search our weather history database for the weather conditions in past years. The results will help you decide how hot, cold, wet, or windy it might be!

Date:

Astronomy

Feb. 26, 2013 Rise Set
Actual Time 8:45 AM AKST 6:36 PM AKST
Civil Twilight 7:56 AM AKST 7:26 PM AKST
Nautical Twilight 6:59 AM AKST 8:22 PM AKST
Astronomical Twilight 6:02 AM AKST 9:20 PM AKST
Moon 8:57 PM AKST (2/26) 8:14 AM AKST (2/26)
Length of Visible Light 11h 30m
Length of Day
9h 50m
Full, 99% of the Moon is Illuminated
Feb 26
Full
Mar 4
Last Quarter
Mar 11
New
Mar 19
First Quarter
Mar 27
Full

Hourly Weather History & Observations

Time (AKST) Temp. Windchill Dew Point Humidity Pressure Visibility Wind Dir Wind Speed Gust Speed Precip Events Conditions
12:58 AM 3.0 °F -8.0 °F -2.0 °F 80% 29.94 in 10.0 mi North 5.8 mph - 0.00 in   Overcast
1:58 AM 1.0 °F -12.9 °F -4.0 °F 79% 29.94 in 10.0 mi North 8.1 mph - N/A   Overcast
2:19 AM -0.4 °F -13.4 °F -5.8 °F 78% 29.93 in 10.0 mi North 6.9 mph - N/A   Overcast
2:58 AM -0.9 °F -8.9 °F -5.1 °F 83% 29.95 in 10.0 mi Variable 3.5 mph - N/A   Overcast
3:36 AM -0.4 °F -10.4 °F -5.8 °F 78% 29.92 in 9.0 mi Variable 4.6 mph - 0.00 in Snow Light Snow
3:58 AM -2.0 °F -12.2 °F -6.0 °F 83% 29.94 in 9.0 mi Variable 4.6 mph - 0.00 in Snow Light Snow
4:58 AM -2.9 °F -15.0 °F -8.0 °F 79% 29.94 in 10.0 mi North 5.8 mph - 0.00 in   Overcast
5:58 AM -4.0 °F -16.3 °F -9.0 °F 79% 29.94 in 10.0 mi Variable 5.8 mph - N/A   Clear
6:58 AM -5.1 °F -15.8 °F -9.9 °F 80% 29.92 in 10.0 mi Variable 4.6 mph - N/A   Mostly Cloudy
7:58 AM -5.1 °F -13.6 °F -9.9 °F 80% 29.90 in 10.0 mi Variable 3.5 mph - N/A   Overcast
8:58 AM -7.1 °F -19.9 °F -11.0 °F 83% 29.88 in 10.0 mi Variable 5.8 mph - 0.00 in   Clear
9:58 AM -7.1 °F -18.1 °F -11.0 °F 83% 29.87 in 10.0 mi Variable 4.6 mph - N/A   Clear
10:58 AM -5.1 °F -20.4 °F -11.0 °F 76% 29.85 in 10.0 mi North 8.1 mph - N/A   Clear
11:58 AM -2.0 °F -13.9 °F -9.9 °F 69% 29.83 in 10.0 mi NNW 5.8 mph - N/A   Clear
12:58 PM -0.9 °F -11.0 °F -9.0 °F 69% 29.81 in 10.0 mi Variable 4.6 mph - N/A   Clear
1:58 PM 1.0 °F -11.7 °F -7.1 °F 69% 29.78 in 10.0 mi North 6.9 mph - N/A   Clear
2:58 PM 1.9 °F -11.8 °F -7.1 °F 66% 29.75 in 10.0 mi North 8.1 mph 16.1 mph N/A   Clear
3:58 PM 1.9 °F -10.6 °F -5.1 °F 72% 29.72 in 10.0 mi Variable 6.9 mph - N/A   Clear
4:58 PM 3.0 °F -8.0 °F -4.0 °F 73% 29.70 in 10.0 mi North 5.8 mph - N/A   Clear
5:58 PM 3.0 °F - -4.0 °F 73% 29.67 in 10.0 mi Calm Calm - N/A   Clear
6:58 PM 1.0 °F - -5.1 °F 75% 29.65 in 10.0 mi Calm Calm - N/A   Clear
7:58 PM 1.0 °F -10.3 °F -4.0 °F 79% 29.62 in 10.0 mi NW 5.8 mph - N/A   Clear
8:58 PM -0.0 °F - -5.1 °F 79% 29.62 in 10.0 mi Calm Calm - N/A   Clear
9:58 PM -0.9 °F -8.9 °F -5.1 °F 83% 29.60 in 10.0 mi NW 3.5 mph - N/A   Clear
10:58 PM -0.9 °F -8.9 °F -5.1 °F 83% 29.58 in 10.0 mi NW 3.5 mph - N/A   Clear
11:58 PM -7.1 °F - -11.0 °F 83% 29.58 in 10.0 mi Calm Calm - N/A   Clear